Location: Unspecified
(0.0000°N, 0.0000°E)
Time: 12:00:10
(UTC+00:00)

Explorer 7 - Pass Details

Date: 10 October 2022
Orbit: 481 x 665 km, 50.3° (Epoch: 04 December)

Event Time Altitude Azimuth Distance (km) Brightness Sun altitude
Exits shadow 04:55:20 - 217° (SW) 2,673 10.0 -12.9°
Reaches altitude 10° 04:57:20 10° 218° (SW) 1,884 9.2 -12.4°
Maximum altitude 05:01:40 87° 306° (NW) 606 7.0 -11.3°
Drops below altitude 10° 05:06:15 10° 36° (NE) 1,991 10.1 -10.1°
Sets 05:08:37 0° 36° (NE) 2,921 11.0 -9.6°
